Location: *
(40.7765°S, 106.5327°E)
Time: 00:55:50
(UTC+00:00)

PEGASUS DEB - Visible Passes

Search period start: 03 February 2023 00:00
Search period end: 13 February 2023 00:00
Orbit: 471 x 536 km, 82.0° (Epoch: 28 January)

Date Brightness Start Highest point End Pass type
(mag) Time Alt. Az. Time Alt. Az. Time Alt. Az.
03 Feb ? 12:50:35 10° NW 12:54:07 30° WSW 12:57:42 10° SSW visible
07 Feb ? 21:29:12 10° SE 21:30:36 12° ESE 21:31:59 10° E visible
08 Feb ? 12:52:43 10° W 12:53:52 11° WSW 12:55:01 10° SW visible
09 Feb ? 12:32:07 10° WNW 12:34:24 15° WSW 12:36:41 10° SW visible
12 Feb ? 21:25:50 10° SSE 21:29:15 31° ESE 21:32:33 10° NE visible
